| time (UTC) | temp F | wind direction | speed knots | gust knots | rain 1hr in | rain 24hr in | rain mn in | humidity % | barometer mb |
| 20260507173817 | 62 | 104 | 2.6 | 5.2 | 0.00 | 0.00 | 0.00 | 60 | 984.9 |
| 20260507170817 | 62 | 58 | 1.7 | 5.2 | 0.00 | 0.00 | 0.00 | 53 | 985.2 |
| 20260507163817 | 62 | 38 | 1.7 | 4.3 | 0.00 | 0.00 | 0.00 | 55 | 985.3 |
| 20260507160817 | 62 | 41 | 1.7 | 3.5 | 0.00 | 0.00 | 0.00 | 56 | 985.3 |
| 20260507153817 | 62 | 67 | 0.9 | 2.6 | 0.00 | 0.00 | 0.00 | 56 | 985.4 |
| 20260507150817 | 62 | 108 | 0.9 | 1.7 | 0.00 | 0.00 | 0.00 | 55 | 985.5 |
| 20260507143817 | 62 | 90 | 0.0 | 1.7 | 0.00 | 0.00 | 0.00 | 55 | 985.6 |
| 20260507140817 | 62 | 360 | 0.9 | 1.7 | 0.00 | 0.00 | 0.00 | 56 | 985.6 |
| 20260507133817 | 62 | 360 | 0.9 | 1.7 | 0.00 | 0.00 | 0.00 | 56 | 985.6 |
| 20260507130817 | 61 | 319 | 1.7 | 2.6 | 0.00 | 0.00 | 0.00 | 60 | 986.2 |
| 20260507123817 | 61 | 333 | 1.7 | 2.6 | 0.00 | 0.00 | 0.00 | 60 | 986.3 |
| 20260507120817 | 61 | 355 | 1.7 | 2.6 | 0.00 | 0.00 | 0.00 | 63 | 986.5 |
| 20260507113817 | 61 | 360 | 1.7 | 2.6 | 0.00 | 0.00 | 0.00 | 63 | 986.6 |
| 20260507110817 | 60 | 18 | 1.7 | 2.6 | 0.00 | 0.00 | 0.00 | 65 | 986.8 |
| 20260507103817 | 59 | 24 | 1.7 | 2.6 | 0.00 | 0.00 | 0.00 | 66 | 986.8 |
| 20260507100817 | 57 | 18 | 0.9 | 4.3 | 0.00 | 0.00 | 0.00 | 71 | 987.1 |
| 20260507093817 | 57 | 6 | 1.7 | 4.3 | 0.00 | 0.00 | 0.00 | 73 | 987.1 |
| 20260507092218 | 56 | 355 | 1.7 | 3.5 | 0.00 | 0.00 | 0.00 | 76 | 987.0 |
| 20260507090617 | 55 | 355 | 1.7 | 3.5 | 0.00 | 0.00 | 0.00 | 78 | 986.9 |
| 20260507085017 | 55 | 360 | 1.7 | 3.5 | 0.00 | 0.00 | 0.00 | 80 | 986.8 |
| 20260507083417 | 54 | 6 | 1.7 | 3.5 | 0.00 | 0.00 | 0.00 | 84 | 986.5 |
| 20260507082617 | 54 | 6 | 1.7 | 3.5 | 0.00 | 0.00 | 0.00 | 84 | 986.5 |
| 20260507081817 | 54 | 6 | 1.7 | 3.5 | 0.00 | 0.00 | 0.00 | 84 | 986.5 |
| 20260507081017 | 53 | 7 | 0.9 | 3.5 | 0.00 | 0.00 | 0.00 | 86 | 986.4 |
| 20260507080217 | 53 | 7 | 0.9 | 3.5 | 0.00 | 0.00 | 0.00 | 86 | 986.4 |
| 20260507075817 | 53 | 360 | 0.9 | 3.5 | 0.00 | 0.00 | 0.00 | 88 | 986.4 |
| 20260507075417 | 53 | 360 | 0.9 | 3.5 | 0.00 | 0.00 | 0.00 | 88 | 986.4 |
| 20260507075017 | 53 | 360 | 0.9 | 3.5 | 0.00 | 0.00 | 0.00 | 88 | 986.4 |
| 20260507074617 | 53 | 360 | 0.9 | 3.5 | 0.00 | 0.00 | 0.00 | 88 | 986.4 |
| 20260507074417 | 53 | 360 | 0.9 | 3.5 | 0.00 | 0.00 | 0.00 | 88 | 986.4 |
| 20260507074217 | 53 | 360 | 0.9 | 3.5 | 0.00 | 0.00 | 0.00 | 88 | 986.4 |
| 20260507074017 | 53 | 360 | 0.9 | 3.5 | 0.00 | 0.00 | 0.00 | 88 | 986.4 |
| 20260507073817 | 53 | 360 | 0.9 | 3.5 | 0.00 | 0.00 | 0.00 | 88 | 986.4 |
| 20260507073717 | 53 | 360 | 0.9 | 3.5 | 0.00 | 0.00 | 0.00 | 88 | 986.4 |
| 20260507073617 | 53 | 360 | 0.9 | 3.5 | 0.00 | 0.00 | 0.00 | 88 | 986.4 |
| 20260507073517 | 53 | 360 | 0.9 | 3.5 | 0.00 | 0.00 | 0.00 | 88 | 986.4 |
| 20260506190817 | 53 | 300 | 2.6 | 5.2 | 0.09 | 0.00 | 0.09 | 89 | 982.9 |
| 20260506183817 | 54 | 298 | 2.6 | 5.2 | 0.09 | 0.00 | 0.09 | 88 | 982.4 |
| 20260506180817 | 54 | 306 | 3.5 | 7.0 | 0.09 | 0.00 | 0.09 | 85 | 982.0 |